RH
53 43 41 46 46 71 50 35 29 36 36 27 27 30 28 27 27 42 54 42 40 45 51 67 86 86 87 88 89 88 86 85 86 85 84 80 79 80 78 78 77 74 70 70 70 74 73 76 76
45 45 42 46 48 44 34 28 33 36 30 31 28 28 28 30 21 30 54 47 44 44 50 57 84 84 86 87 89 89 88 87 86 85 84 82 81 78 79 79 77 76 75 77 77 79 81 79 76
49 45 47 46 44 42 34 21 23 27 30 36 32 24 23 25 20 23 48 50 47 47 49 57 83 84 87 88 88 87 87 87 86 86 85 83 82 80 79 79 78 78 81 82 82 81 81 79 78
47 53 51 62 54 35 27 18 20 43 37 32 39 37 22 18 40 50 48 49 48 53 47 75 84 85 86 87 87 86 87 87 86 86 85 83 82 80 80 80 84 86 86 85 83 81 80 80 78
53 50 54 56 45 32 26 21 23 42 40 38 45 41 43 30 54 53 66 56 54 54 55 65 84 86 86 87 87 87 88 88 87 85 84 84 82 82 81 84 87 87 86 85 82 81 81 79 76
57 47 57 55 41 30 28 27 31 29 33 35 47 54 47 54 41 48 65 75 62 57 64 65 83 86 86 86 86 87 88 88 86 84 84 84 83 85 85 87 87 87 86 85 83 81 80 78 74
56 53 49 41 35 32 32 27 31 30 28 27 37 64 44 50 40 41 53 72 76 60 69 69 68 75 88 87 88 87 89 86 85 85 85 86 88 86 86 88 88 87 86 86 86 81 78 75 76
47 52 46 42 37 33 26 30 28 29 30 23 29 50 52 37 41 41 45 70 88 73 71 74 70 64 60 66 92 91 90 90 86 87 88 92 90 87 88 90 87 87 86 87 85 81 76 75 78
50 58 49 39 40 36 32 39 29 30 38 38 46 38 30 32 39 45 48 71 90 83 82 76 66 59 51 52 72 92 94 93 92 91 92 89 71 66 72 74 91 90 89 88 85 80 79 85 86
62 54 41 32 35 36 35 42 38 37 41 44 42 41 40 39 45 46 48 67 91 88 86 74 66 57 53 48 61 60 67 66 65 75 70 64 63 56 49 80 93 91 91 88 84 81 83 67 42
53 57 36 39 39 37 44 47 42 49 51 40 44 45 44 49 44 47 56 72 90 94 87 71 66 56 53 49 50 51 64 73 75 72 69 64 59 52 54 69 64 66 79 60 63 62 44 40 35
62 44 43 42 39 44 52 47 47 47 45 40 42 44 50 52 43 47 62 66 90 94 88 75 66 58 50 44 43 46 56 72 76 72 62 64 62 54 46 65 52 55 50 51 49 44 45 44 40
55 44 42 41 48 48 45 51 49 47 36 32 34 46 50 50 36 52 64 75 85 93 93 82 74 61 50 47 45 44 50 59 62 62 58 56 58 49 43 74 53 48 47 48 46 44 45 44 42
46 51 48 44 45 42 45 41 40 36 31 33 36 37 48 48 46 55 67 68 84 91 93 87 78 67 57 49 46 44 45 48 53 54 55 55 55 50 51 83 64 49 46 44 43 44 45 46 43
51 59 44 43 39 44 40 47 43 30 28 32 35 47 49 47 46 58 64 81 88 92 92 90 82 70 60 51 47 46 48 46 49 51 50 53 63 62 69 82 67 51 46 43 43 45 46 46 46
57 52 57 33 41 38 46 45 28 28 35 37 34 36 38 40 45 52 64 78 86 92 95 97 88 77 67 52 52 47 50 50 50 48 50 54 63 57 61 68 63 51 50 47 47 47 48 47 47
50 60 53 40 32 40 46 44 29 33 38 35 41 37 35 33 48 52 63 67 82 92 96 95 91 88 74 63 57 49 48 47 48 48 52 61 60 58 51 53 55 53 53 51 47 47 46 51 50
62 47 40 45 36 44 47 45 33 32 39 47 47 48 45 40 48 52 60 74 82 88 93 93 93 86 79 76 71 54 50 48 49 49 51 58 57 59 54 55 55 56 56 54 51 50 48 45 48
64 84 76 46 37 43 45 34 31 29 36 47 58 57 46 46 45 52 61 50 79 89 94 93 99 88 91 90 88 82 64 55 55 51 52 58 54 56 58 59 61 58 56 54 51 50 54 57 53
67 77 66 47 42 51 43 44 35 33 33 41 48 57 57 52 48 54 64 63 77 82 92 97 96 96 91 90 84 79 73 69 64 65 59 57 56 58 60 60 61 60 56 54 54 60 61 53 58
76 73 68 78 52 46 47 48 40 30 33 42 46 51 47 50 53 48 63 65 67 81 93 95 92 97 92 89 90 92 87 86 82 75 69 65 60 64 62 61 57 58 56 60 63 60 63 67 66
87 47 52 77 83 73 58 60 31 31 37 45 42 44 49 49 52 51 61 58 68 81 94 95 91 90 94 93 94 95 96 94 88 82 77 72 61 64 66 64 57 58 61 62 63 64 69 66 68
69 51 64 92 88 94 62 87 43 50 53 48 43 50 49 58 57 57 64 58 60 81 94 97 98 99 98 96 92 95 95 90 84 88 81 78 66 65 69 71 70 71 68 66 68 74 75 68 75
49 70 77 94 94 94 58 69 97 68 70 59 52 49 61 68 60 60 65 73 66 94 94 97 97 97 98 98 94 94 93 92 92 89 86 89 87 80 75 76 75 76 78 77 80 79 80 80 85
88 98 93 96 96 76 89 84 96 89 83 68 60 58 68 67 67 68 69 72 97 96 92 94 93 97 99 95 96 93 98 96 92 87 87 90 90 90 87 81 83 85 82 80 83 84 87 89 88
100 99 93 94 87 87 87 94 98 86 52 49 53 59 61 68 83 81 68 94 91 95 95 93 89 92 94 97 98 97 97 98 99 95 92 86 89 89 87 89 87 83 80 85 89 93 95 91 93
100 97 94 98 92 70 93 98 98 71 63 49 58 61 68 81 94 80 72 88 81 83 90 88 86 88 94 96 98 98 94 96 98 99 99 95 93 96 97 97 96 90 91 94 97 97 98 97 99
100 96 99 93 93 94 88 88 98 93 88 69 59 57 79 94 91 82 81 84 79 76 78 81 79 81 87 89 90 95 96 95 96 98 99 99 97 96 98 99 96 98 93 95 97 98 91 88 95
88 88 81 78 80 88 89 95 99 92 88 82 71 70 90 91 89 82 88 90 79 75 72 74 74 77 84 86 94 94 95 98 94 96 98 98 99 98 97 93 96 96 96 96 98 96 93 88 85
97 87 77 88 90 88 86 98 85 71 74 74 72 85 72 81 92 86 93 98 98 89 84 84 82 80 78 82 86 92 96 98 98 97 93 96 97 96 96 96 96 96 93 90 82 86 83 84 85
Wind_Speed
6 4 1 5 8 9 26 21 10 6 8 14 13 16 15 16 17 8 5 13 13 23 24 24 23 22 19 19 18 20 22 22 22 22 22 22 20 20 20 21 20 19 18 18 18 19 19 20 20
5 4 2 3 9 16 15 17 24 9 12 6 15 22 16 18 20 5 2 9 15 20 22 24 23 22 20 19 19 20 22 22 22 22 22 22 21 20 21 20 19 17 16 17 18 18 19 18 18
5 1 4 5 11 18 15 15 19 21 13 8 7 15 22 14 12 8 3 13 18 21 22 22 23 24 22 20 20 20 21 22 22 22 22 21 20 21 20 20 18 17 17 18 18 19 18 17 16
6 4 3 9 13 17 26 15 15 7 11 13 5 11 11 9 8 17 2 16 21 19 21 23 23 24 23 22 21 21 22 22 22 22 22 21 20 21 21 19 17 18 18 18 18 18 17 16 15
4 3 8 12 19 20 14 16 13 12 10 11 5 8 12 3 12 18 23 13 21 22 15 23 24 24 23 21 21 21 22 22 22 22 22 21 21 21 21 19 18 17 17 17 18 18 16 15 15
6 4 8 14 19 16 16 14 14 17 19 20 5 9 10 7 17 18 16 17 16 22 17 21 20 21 22 22 21 21 21 22 21 21 21 21 22 22 21 19 18 17 16 17 18 17 16 15 15
11 8 13 17 16 15 16 14 17 17 20 23 9 7 14 16 13 17 19 12 19 21 18 20 20 18 18 20 20 20 20 21 20 21 21 21 21 23 22 20 18 17 16 17 17 17 15 15 15
8 7 13 10 17 20 14 14 16 17 21 16 19 10 20 17 11 18 21 15 14 19 20 18 17 19 18 17 14 17 17 17 19 20 19 19 19 20 20 19 17 15 16 16 16 16 16 15 14
5 8 12 18 11 12 3 10 12 9 14 5 10 21 25 29 21 20 19 19 12 20 17 17 19 17 18 18 14 13 14 13 16 15 17 18 13 18 19 15 14 14 15 16 15 16 16 14 12
11 11 15 9 11 11 8 10 12 14 14 14 16 15 20 31 26 21 18 16 15 26 21 20 20 19 17 14 18 17 16 15 16 14 17 12 15 14 14 15 14 14 15 16 15 17 16 12 9
10 18 15 11 10 10 11 12 14 14 18 17 17 17 15 23 21 19 15 11 9 28 20 22 20 21 19 16 14 10 9 9 10 16 13 12 10 11 11 10 10 12 12 10 12 12 8 9 7
13 16 15 15 14 14 14 14 17 17 19 14 14 15 14 17 13 16 13 15 11 14 20 23 21 21 21 14 13 14 10 9 9 11 15 11 8 11 12 9 12 12 10 12 10 7 8 9 9
17 16 14 14 13 15 14 18 21 25 19 19 17 17 20 19 19 10 9 9 12 19 21 21 20 21 19 19 14 14 14 12 12 12 15 12 11 12 13 8 11 11 10 10 9 9 8 8 8
5 9 12 14 16 16 19 22 22 23 18 21 21 22 22 18 16 9 7 9 6 14 16 16 21 20 18 17 19 14 13 14 13 12 13 14 11 11 12 8 10 10 10 10 9 9 8 7 7
9 15 15 17 16 14 14 22 27 26 22 24 24 19 20 20 12 12 9 6 3 13 17 15 20 21 20 21 18 14 13 13 13 12 16 16 13 13 12 8 10 11 10 11 9 9 7 6 5
11 9 11 0 4 6 9 16 9 11 14 20 25 23 20 19 14 12 8 6 2 8 11 8 9 20 19 19 15 13 14 13 13 12 13 17 17 16 14 11 11 11 9 8 8 8 7 6 5
7 10 11 13 4 9 12 14 10 6 13 17 18 20 20 18 10 12 9 8 3 3 7 13 20 22 21 17 14 14 18 13 12 12 13 17 17 16 13 12 11 12 9 8 8 7 7 6 5
5 10 10 11 3 9 15 20 20 20 20 17 16 16 16 15 13 8 8 7 5 6 3 9 15 20 20 14 11 12 13 12 12 13 13 17 13 16 13 11 11 11 9 8 8 9 6 6 5
8 10 15 18 18 18 20 22 21 20 17 19 11 13 15 11 9 7 6 9 6 4 7 5 8 18 14 12 12 12 13 12 12 12 17 17 14 15 13 10 11 10 10 10 10 8 9 5 4
13 16 18 15 7 6 18 21 22 20 18 17 17 9 8 13 10 8 7 9 8 5 4 3 4 11 15 12 11 10 11 10 9 10 13 14 14 13 13 12 11 11 9 10 10 9 6 5 6
14 15 16 17 16 18 19 22 27 18 18 16 15 11 12 12 11 10 11 10 6 4 7 4 10 14 18 16 10 8 8 8 7 10 11 12 14 13 13 12 10 11 9 8 9 9 8 6 6
14 10 14 11 8 7 1 8 9 9 14 16 15 16 14 14 9 9 12 9 5 8 13 11 14 18 18 17 12 14 9 12 9 10 9 10 15 14 13 12 11 10 8 8 8 7 6 6 5
10 9 12 11 14 14 18 9 6 4 10 11 14 11 15 8 9 11 10 4 5 5 12 13 8 10 8 14 14 11 10 8 8 8 14 12 13 14 13 12 11 9 7 8 8 7 7 5 4
12 13 18 14 11 9 15 11 2 2 2 3 6 13 8 7 6 7 4 2 6 7 12 14 14 9 6 9 13 12 11 9 10 11 11 8 8 9 12 11 10 8 7 8 6 6 7 5 4
11 9 4 5 7 6 3 10 2 5 6 7 12 10 8 6 6 6 4 2 7 12 12 15 15 12 10 12 11 13 11 8 12 12 10 11 9 8 11 11 9 6 6 7 6 6 5 5 5
9 3 5 6 3 4 5 2 4 1 5 3 4 5 8 6 5 2 3 4 9 12 14 15 16 15 14 8 11 11 12 2 6 8 8 9 8 9 11 8 7 8 8 7 7 4 4 5 4
1 6 3 6 2 2 4 1 1 15 17 16 7 5 10 8 3 2 2 6 12 12 14 14 16 16 16 14 13 9 9 10 6 4 3 9 10 9 9 7 6 5 5 5 4 4 6 5 3
6 7 2 2 5 5 5 8 6 16 15 13 14 6 9 9 4 5 3 7 10 10 13 14 15 16 15 15 13 9 7 7 10 8 4 7 8 10 11 9 5 5 6 5 6 4 6 7 4
6 5 4 2 4 5 3 5 9 13 13 13 10 10 12 10 7 4 3 5 9 10 11 12 13 14 13 12 11 11 10 6 8 9 9 9 7 10 9 9 7 8 7 7 5 6 6 6 7
4 11 6 5 6 4 2 6 10 14 13 10 13 11 9 10 4 2 3 6 8 8 11 10 10 10 10 8 9 11 11 8 7 7 8 7 6 7 9 8 8 7 7 8 10 9 8 8 7
Wind_Direction
150 99 154 200 207 229 243 233 255 258 235 254 236 226 235 248 220 240 341 188 178 165 160 161 156 152 156 155 148 148 150 149 148 149 150 151 148 146 143 138 134 137 138 135 127 120 114 110 107
148 134 173 194 237 223 240 242 233 239 230 337 239 236 246 246 255 301 130 169 165 169 161 165 159 154 157 156 151 148 149 150 150 151 151 152 150 148 144 141 139 135 136 131 121 117 112 110 113
149 208 207 209 234 236 248 238 240 240 218 268 270 242 243 227 252 263 260 177 175 172 168 160 160 157 157 158 156 154 153 152 154 153 153 152 152 150 145 141 140 132 122 119 121 117 115 116 114
173 177 217 236 222 231 241 249 265 238 251 236 349 265 273 249 334 352 288 182 174 178 176 149 159 158 158 159 161 160 158 159 158 156 154 152 152 150 144 141 127 126 122 127 126 122 120 117 114
178 220 228 231 235 239 247 264 237 228 246 242 347 272 309 350 35 8 355 198 178 176 173 161 162 159 160 162 163 163 161 160 160 160 158 154 153 148 145 136 128 129 131 133 129 125 121 118 116
189 257 230 233 240 241 247 252 253 252 246 254 259 297 270 77 21 7 356 328 204 175 160 165 160 160 162 164 164 164 164 161 165 160 157 154 147 144 137 135 132 135 138 143 130 127 123 120 118
235 222 244 254 260 251 245 246 247 249 251 244 216 237 278 287 4 359 348 320 254 181 165 164 163 163 167 166 162 165 163 163 161 157 153 146 141 142 139 136 136 136 139 135 127 125 125 122 120
238 248 255 247 250 258 241 242 249 252 257 267 231 237 254 257 326 343 342 328 271 190 162 165 163 172 173 170 160 159 156 157 153 150 142 136 137 140 138 136 138 139 139 128 125 126 124 122 121
207 235 245 251 253 246 210 243 254 260 284 232 199 231 228 247 286 314 329 337 313 191 164 165 166 171 174 173 158 147 143 142 137 134 129 139 144 154 149 138 134 134 137 129 127 124 121 115 112
214 226 247 254 254 265 273 271 274 263 250 237 234 237 254 261 264 283 302 316 340 207 170 169 168 170 173 171 165 166 158 161 160 149 150 148 158 153 152 130 125 127 126 125 126 125 131 160 137
221 243 255 247 262 264 269 273 268 262 254 252 255 249 278 279 260 263 271 293 321 327 173 171 167 170 170 171 174 166 166 162 155 154 156 157 159 154 150 144 145 144 149 141 138 143 154 141 140
251 244 262 266 272 272 258 283 270 264 268 284 271 265 279 284 264 253 259 290 312 285 280 176 169 167 173 166 178 172 164 161 160 164 166 157 153 165 161 151 158 155 167 154 155 158 145 146 146
245 258 263 268 266 267 274 263 270 263 266 273 275 262 262 263 253 240 240 288 328 323 317 169 162 168 173 169 172 174 172 173 169 168 173 169 165 167 165 149 166 163 157 160 157 157 154 154 150
322 275 274 274 266 269 266 266 260 256 257 261 260 254 255 260 263 228 229 281 297 312 295 205 163 170 167 175 173 171 174 179 172 173 178 171 164 169 153 153 170 163 165 161 160 158 157 151 158
279 279 277 264 261 251 264 268 254 265 260 253 253 246 254 253 270 240 227 231 294 309 296 202 171 170 164 184 173 171 171 170 173 170 167 166 164 164 154 168 169 168 165 166 164 159 162 156 158
268 266 270 156 278 233 219 263 297 253 269 252 248 249 256 257 259 237 196 215 257 321 280 312 211 169 172 179 171 170 171 174 168 168 163 171 164 171 169 173 175 172 166 164 166 167 170 168 179
226 269 261 291 247 267 231 278 286 278 294 259 249 251 256 256 244 224 189 198 217 232 283 272 291 171 166 168 173 173 171 171 168 166 166 173 169 170 170 175 173 172 171 172 172 174 182 177 187
290 270 277 278 291 271 279 271 273 271 272 272 251 248 240 248 243 228 208 187 191 287 325 255 285 169 158 158 168 167 167 166 168 168 171 175 172 172 174 171 172 177 171 178 178 177 191 195 190
274 272 278 281 280 270 274 273 276 269 256 250 257 260 260 259 255 239 198 242 214 263 245 159 280 158 156 159 164 164 173 165 170 169 173 175 171 177 178 176 174 179 175 180 182 183 183 183 194
259 270 277 288 302 250 266 270 271 263 255 244 254 255 267 256 245 230 224 234 222 227 295 243 262 251 168 161 172 173 158 157 160 156 166 178 175 178 181 176 179 182 181 182 184 180 182 198 195
254 262 278 281 300 279 264 270 266 250 241 241 235 244 256 262 251 231 214 212 181 234 228 201 263 209 187 164 158 151 134 140 151 169 166 177 176 175 180 182 181 184 190 187 185 193 190 192 198
276 257 267 277 287 270 47 291 276 240 210 220 224 230 243 257 240 237 220 200 178 200 203 168 314 200 179 153 161 149 156 160 169 167 160 167 176 179 182 184 187 189 188 194 195 196 208 235 211
258 266 268 283 280 293 261 253 282 186 200 214 213 213 238 240 235 218 224 213 271 227 162 114 66 337 131 153 158 154 155 167 160 162 167 172 177 178 179 180 183 187 190 196 191 189 205 218 244
270 292 279 264 245 248 241 201 137 176 323 293 211 209 187 213 240 231 201 356 304 200 146 132 144 140 6 107 156 164 156 175 163 167 168 166 164 174 178 179 181 182 185 188 192 205 210 212 212
226 240 282 220 193 248 136 160 305 353 279 249 184 196 185 194 227 218 96 175 205 154 150 134 154 144 105 128 97 101 82 165 166 170 165 160 161 163 166 168 164 172 186 186 186 189 177 189 218
222 249 262 298 222 103 117 86 72 344 37 117 133 174 156 158 206 92 65 207 128 120 124 124 147 160 154 163 115 106 119 46 95 169 160 163 160 152 144 145 154 169 187 184 175 179 169 191 222
175 193 239 264 277 66 355 54 194 29 27 30 56 125 131 137 85 3 46 134 119 112 116 125 124 120 129 137 118 135 157 158 134 124 129 152 145 139 135 153 156 172 172 169 173 177 172 140 163
233 312 243 243 354 81 44 54 19 18 14 13 27 39 112 107 83 8 33 129 139 123 126 132 131 127 130 127 138 148 131 137 134 129 126 110 138 151 160 166 172 156 186 185 163 124 146 159 154
341 1 325 249 12 11 48 39 348 17 18 12 25 47 83 68 28 330 77 117 115 126 131 130 132 135 140 145 135 145 144 144 140 147 160 136 167 151 141 166 179 181 168 157 141 147 171 170 140
307 1 344 352 13 34 340 66 10 33 39 38 56 74 68 76 7 342 89 72 106 129 134 129 131 139 139 148 147 137 135 142 140 138 153 139 117 130 140 160 151 152 160 153 168 158 164 159 153